Year,Month,Day,Hour,Minute,Value (Times are PST for temperature in C)
2009,07,30,00,00,20.10
2009,07,30,00,01,19.90
2009,07,30,00,02,19.80
2009,07,30,00,03,19.80
2009,07,30,00,04,19.80
2009,07,30,00,05,19.80
2009,07,30,00,06,19.80
2009,07,30,00,07,19.80
2009,07,30,00,08,19.90
2009,07,30,00,09,19.90
2009,07,30,00,10,20.00
2009,07,30,00,11,20.10
2009,07,30,00,12,20.20
2009,07,30,00,13,20.20
2009,07,30,00,14,20.20
2009,07,30,00,15,20.30
2009,07,30,00,16,20.40
2009,07,30,00,17,20.50
2009,07,30,00,18,20.50
2009,07,30,00,19,20.60
2009,07,30,00,20,20.70
2009,07,30,00,21,20.70
2009,07,30,00,22,20.80
2009,07,30,00,23,20.90
2009,07,30,00,24,21.00
2009,07,30,00,25,21.00
2009,07,30,00,26,21.10
2009,07,30,00,27,21.10
2009,07,30,00,28,21.30
2009,07,30,00,29,21.30
2009,07,30,00,30,21.30
2009,07,30,00,31,21.40
2009,07,30,00,32,21.50
2009,07,30,00,33,21.60
2009,07,30,00,34,21.60
2009,07,30,00,35,21.60
2009,07,30,00,36,21.60
2009,07,30,00,37,21.70
2009,07,30,00,38,21.70
2009,07,30,00,39,21.70
2009,07,30,00,40,21.80
2009,07,30,00,41,21.80
2009,07,30,00,42,21.90
2009,07,30,00,43,21.90
2009,07,30,00,44,21.90
2009,07,30,00,45,22.00
2009,07,30,00,46,22.00
2009,07,30,00,47,22.00
2009,07,30,00,48,22.00
2009,07,30,00,49,22.00
2009,07,30,00,50,22.00
2009,07,30,00,51,22.00
2009,07,30,00,52,22.00
2009,07,30,00,53,22.00
2009,07,30,00,54,21.90
2009,07,30,00,55,21.90
2009,07,30,00,56,21.90
2009,07,30,00,57,21.80
2009,07,30,00,58,21.80
2009,07,30,00,59,21.80
2009,07,30,01,00,21.80
2009,07,30,01,01,21.80
2009,07,30,01,02,21.70
2009,07,30,01,03,21.70
2009,07,30,01,04,21.70
2009,07,30,01,05,21.60
2009,07,30,01,06,21.60
2009,07,30,01,07,21.60
2009,07,30,01,08,21.60
2009,07,30,01,09,21.70
2009,07,30,01,10,21.70
2009,07,30,01,11,21.70
2009,07,30,01,12,21.70
2009,07,30,01,13,21.80
2009,07,30,01,14,21.80
2009,07,30,01,15,21.80
2009,07,30,01,16,21.80
2009,07,30,01,17,21.70
2009,07,30,01,18,21.40
2009,07,30,01,19,21.10
2009,07,30,01,20,20.80
2009,07,30,01,21,20.50
2009,07,30,01,22,20.10
2009,07,30,01,23,19.80
2009,07,30,01,24,19.60
2009,07,30,01,25,19.40
2009,07,30,01,26,19.10
2009,07,30,01,27,18.90
2009,07,30,01,28,18.80
2009,07,30,01,29,18.70
2009,07,30,01,30,18.70
2009,07,30,01,31,18.60
2009,07,30,01,32,18.60
2009,07,30,01,33,18.60
2009,07,30,01,34,18.60
2009,07,30,01,35,18.60
2009,07,30,01,36,18.60
2009,07,30,01,37,18.60
2009,07,30,01,38,18.60
2009,07,30,01,39,18.60
2009,07,30,01,40,18.60
2009,07,30,01,41,18.60
2009,07,30,01,42,18.60
2009,07,30,01,43,18.70
2009,07,30,01,44,18.70
2009,07,30,01,45,18.80
2009,07,30,01,46,18.90
2009,07,30,01,47,18.90
2009,07,30,01,48,18.90
2009,07,30,01,49,18.80
2009,07,30,01,50,18.70
2009,07,30,01,51,18.60
2009,07,30,01,52,18.50
2009,07,30,01,53,18.40
2009,07,30,01,54,18.30
2009,07,30,01,55,18.10
2009,07,30,01,56,18.00
2009,07,30,01,57,17.90
2009,07,30,01,58,17.90
2009,07,30,01,59,17.80
2009,07,30,02,00,17.80
2009,07,30,02,01,17.80
2009,07,30,02,02,17.80
2009,07,30,02,03,17.80
2009,07,30,02,04,17.80
2009,07,30,02,05,17.70
2009,07,30,02,06,17.70
2009,07,30,02,07,17.80
2009,07,30,02,08,17.80
2009,07,30,02,09,17.80
2009,07,30,02,10,17.80
2009,07,30,02,11,17.80
2009,07,30,02,12,17.80
2009,07,30,02,13,17.90
2009,07,30,02,14,17.90
2009,07,30,02,15,17.90
2009,07,30,02,16,17.90
2009,07,30,02,17,17.90
2009,07,30,02,18,17.90
2009,07,30,02,19,17.90
2009,07,30,02,20,17.90
2009,07,30,02,21,17.90
2009,07,30,02,22,17.90
2009,07,30,02,23,18.00
2009,07,30,02,24,18.10
2009,07,30,02,25,18.10
2009,07,30,02,26,18.10
2009,07,30,02,27,18.10
2009,07,30,02,28,18.10
2009,07,30,02,29,18.20
2009,07,30,02,30,18.20
2009,07,30,02,31,18.20
2009,07,30,02,32,18.20
2009,07,30,02,33,18.30
2009,07,30,02,34,18.20
2009,07,30,02,35,18.20
2009,07,30,02,36,18.20
2009,07,30,02,37,18.20
2009,07,30,02,38,18.30
2009,07,30,02,39,18.30
2009,07,30,02,40,18.30
2009,07,30,02,41,18.30
2009,07,30,02,42,18.30
2009,07,30,02,43,18.40
2009,07,30,02,44,18.40
2009,07,30,02,45,18.40
2009,07,30,02,46,18.40
2009,07,30,02,47,18.40
2009,07,30,02,48,18.40
2009,07,30,02,49,18.40
2009,07,30,02,50,18.40
2009,07,30,02,51,18.40
2009,07,30,02,52,18.40
2009,07,30,02,53,18.40
2009,07,30,02,54,18.40
2009,07,30,02,55,18.40
2009,07,30,02,56,18.40
2009,07,30,02,57,18.40
2009,07,30,02,58,18.40
2009,07,30,02,59,18.30
2009,07,30,03,00,18.30
2009,07,30,03,01,18.20
2009,07,30,03,02,18.20
2009,07,30,03,03,18.10
2009,07,30,03,04,18.10
2009,07,30,03,05,18.10
2009,07,30,03,06,18.00
2009,07,30,03,07,17.90
2009,07,30,03,08,17.90
2009,07,30,03,09,17.90
2009,07,30,03,10,17.90
2009,07,30,03,11,17.90
2009,07,30,03,12,17.90
2009,07,30,03,13,17.90
2009,07,30,03,14,17.90
2009,07,30,03,15,17.90
2009,07,30,03,16,17.90
2009,07,30,03,17,18.00
2009,07,30,03,18,18.10
2009,07,30,03,19,18.10
2009,07,30,03,20,18.10
2009,07,30,03,21,18.20
2009,07,30,03,22,18.20
2009,07,30,03,23,18.20
2009,07,30,03,24,18.20
2009,07,30,03,25,18.20
2009,07,30,03,26,18.20
2009,07,30,03,27,18.20
2009,07,30,03,28,18.10
2009,07,30,03,29,18.10
2009,07,30,03,30,18.00
2009,07,30,03,31,17.90
2009,07,30,03,32,17.90
2009,07,30,03,33,17.80
2009,07,30,03,34,17.70
2009,07,30,03,35,17.70
2009,07,30,03,36,17.60
2009,07,30,03,37,17.50
2009,07,30,03,38,17.50
2009,07,30,03,39,17.40
2009,07,30,03,40,17.40
2009,07,30,03,41,17.40
2009,07,30,03,42,17.30
2009,07,30,03,43,17.30
2009,07,30,03,44,17.30
2009,07,30,03,45,17.30
2009,07,30,03,46,17.30
2009,07,30,03,47,17.30
2009,07,30,03,48,17.30
2009,07,30,03,49,17.30
2009,07,30,03,50,17.30
2009,07,30,03,51,17.30
2009,07,30,03,52,17.30
2009,07,30,03,53,17.30
2009,07,30,03,54,17.30
2009,07,30,03,55,17.30
2009,07,30,03,56,17.30
2009,07,30,03,57,17.30
2009,07,30,03,58,17.30
2009,07,30,03,59,17.30
2009,07,30,04,00,17.30
2009,07,30,04,01,17.30
2009,07,30,04,02,17.30
2009,07,30,04,03,17.30
2009,07,30,04,04,17.30
2009,07,30,04,05,17.30
2009,07,30,04,06,17.30
2009,07,30,04,07,17.30
2009,07,30,04,08,17.30
2009,07,30,04,09,17.30
2009,07,30,04,10,17.30
2009,07,30,04,11,17.30
2009,07,30,04,12,17.30
2009,07,30,04,13,17.30
2009,07,30,04,14,17.30
2009,07,30,04,15,17.30
2009,07,30,04,16,17.20
2009,07,30,04,17,17.30
2009,07,30,04,18,17.20
2009,07,30,04,19,17.30
2009,07,30,04,20,17.30
2009,07,30,04,21,17.30
2009,07,30,04,22,17.30
2009,07,30,04,23,17.30
2009,07,30,04,24,17.20
2009,07,30,04,25,17.20
2009,07,30,04,26,17.20
2009,07,30,04,27,17.20
2009,07,30,04,28,17.20
2009,07,30,04,29,17.20
2009,07,30,04,30,17.20
2009,07,30,04,31,17.20
2009,07,30,04,32,17.20
2009,07,30,04,33,17.20
2009,07,30,04,34,17.20
2009,07,30,04,35,17.20
2009,07,30,04,36,17.20
2009,07,30,04,37,17.20
2009,07,30,04,38,17.20
2009,07,30,04,39,17.30
2009,07,30,04,40,17.30
2009,07,30,04,41,17.30
2009,07,30,04,42,17.30
2009,07,30,04,43,17.30
2009,07,30,04,44,17.30
2009,07,30,04,45,17.30
2009,07,30,04,46,17.30
2009,07,30,04,47,17.30
2009,07,30,04,48,17.30
2009,07,30,04,49,17.40
2009,07,30,04,50,17.40
2009,07,30,04,51,17.40
2009,07,30,04,52,17.40
2009,07,30,04,53,17.50
2009,07,30,04,54,17.50
2009,07,30,04,55,17.50
2009,07,30,04,56,17.50
2009,07,30,04,57,17.50
2009,07,30,04,58,17.50
2009,07,30,04,59,17.50
2009,07,30,05,00,17.50
2009,07,30,05,01,17.50
2009,07,30,05,02,17.60
2009,07,30,05,03,17.60
2009,07,30,05,04,17.60
2009,07,30,05,05,17.60
2009,07,30,05,06,17.60
2009,07,30,05,07,17.60
2009,07,30,05,08,17.60
2009,07,30,05,09,17.60
2009,07,30,05,10,17.60
2009,07,30,05,11,17.60
2009,07,30,05,12,17.60
2009,07,30,05,13,17.60
2009,07,30,05,14,17.60
2009,07,30,05,15,17.60
2009,07,30,05,16,17.60
2009,07,30,05,17,17.60
2009,07,30,05,18,17.60
2009,07,30,05,19,17.60
2009,07,30,05,20,17.60
2009,07,30,05,21,17.60
2009,07,30,05,22,17.50
2009,07,30,05,23,17.50
2009,07,30,05,24,17.50
2009,07,30,05,25,17.50
2009,07,30,05,26,17.40
2009,07,30,05,27,17.40
2009,07,30,05,28,17.40
2009,07,30,05,29,17.40
2009,07,30,05,30,17.30
2009,07,30,05,31,17.30
2009,07,30,05,32,17.30
2009,07,30,05,33,17.30
2009,07,30,05,34,17.30
2009,07,30,05,35,17.30
2009,07,30,05,36,17.30
2009,07,30,05,37,17.30
2009,07,30,05,38,17.30
2009,07,30,05,39,17.30
2009,07,30,05,40,17.30
2009,07,30,05,41,17.30
2009,07,30,05,42,17.30
2009,07,30,05,43,17.30
2009,07,30,05,44,17.30
2009,07,30,05,45,17.30
2009,07,30,05,46,17.30
2009,07,30,05,47,17.30
2009,07,30,05,48,17.30
2009,07,30,05,49,17.30
2009,07,30,05,50,17.30
2009,07,30,05,51,17.40
2009,07,30,05,52,17.40
2009,07,30,05,53,17.40
2009,07,30,05,54,17.40
2009,07,30,05,55,17.50
2009,07,30,05,56,17.50
2009,07,30,05,57,17.50
2009,07,30,05,58,17.60
2009,07,30,05,59,17.60
2009,07,30,06,00,17.70
2009,07,30,06,01,17.80
2009,07,30,06,02,17.80
2009,07,30,06,03,17.80
2009,07,30,06,04,17.90
2009,07,30,06,05,17.90
2009,07,30,06,06,17.90
2009,07,30,06,07,17.90
2009,07,30,06,08,18.00
2009,07,30,06,09,18.10
2009,07,30,06,10,18.10
2009,07,30,06,11,18.20
2009,07,30,06,12,18.20
2009,07,30,06,13,18.20
2009,07,30,06,14,18.20
2009,07,30,06,15,18.20
2009,07,30,06,16,18.20
2009,07,30,06,17,18.30
2009,07,30,06,18,18.30
2009,07,30,06,19,18.40
2009,07,30,06,20,18.40
2009,07,30,06,21,18.40
2009,07,30,06,22,18.50
2009,07,30,06,23,18.50
2009,07,30,06,24,18.50
2009,07,30,06,25,18.60
2009,07,30,06,26,18.60
2009,07,30,06,27,18.60
2009,07,30,06,28,18.70
2009,07,30,06,29,18.70
2009,07,30,06,30,18.80
2009,07,30,06,31,18.80
2009,07,30,06,32,18.80
2009,07,30,06,33,18.80
2009,07,30,06,34,18.90
2009,07,30,06,35,18.90
2009,07,30,06,36,18.90
2009,07,30,06,37,18.90
2009,07,30,06,38,18.90
2009,07,30,06,39,18.90
2009,07,30,06,40,19.00
2009,07,30,06,41,19.10
2009,07,30,06,42,19.10
2009,07,30,06,43,19.10
2009,07,30,06,44,19.10
2009,07,30,06,45,19.10
2009,07,30,06,46,19.20
2009,07,30,06,47,19.20
2009,07,30,06,48,19.20
2009,07,30,06,49,19.30
2009,07,30,06,50,19.30
2009,07,30,06,51,19.30
2009,07,30,06,52,19.30
2009,07,30,06,53,19.40
2009,07,30,06,54,19.30
2009,07,30,06,55,19.20
2009,07,30,06,56,19.10
2009,07,30,06,57,18.90
2009,07,30,06,58,18.70
2009,07,30,06,59,18.50
2009,07,30,07,00,18.30
2009,07,30,07,01,18.10
2009,07,30,07,02,17.90
2009,07,30,07,03,17.80
2009,07,30,07,04,17.60
2009,07,30,07,05,17.50
2009,07,30,07,06,17.40
2009,07,30,07,07,17.30
2009,07,30,07,08,17.10
2009,07,30,07,09,17.00
2009,07,30,07,10,16.90
2009,07,30,07,11,16.80
2009,07,30,07,12,16.70
2009,07,30,07,13,16.60
2009,07,30,07,14,16.50
2009,07,30,07,15,16.40
2009,07,30,07,16,16.40
2009,07,30,07,17,16.30
2009,07,30,07,18,16.30
2009,07,30,07,19,16.30
2009,07,30,07,20,16.30
2009,07,30,07,21,16.30
2009,07,30,07,22,16.30
2009,07,30,07,23,16.30
2009,07,30,07,24,16.40
2009,07,30,07,25,16.40
2009,07,30,07,26,16.40
2009,07,30,07,27,16.40
2009,07,30,07,28,16.40
2009,07,30,07,29,16.40
2009,07,30,07,30,16.40
2009,07,30,07,31,16.50
2009,07,30,07,32,16.60
2009,07,30,07,33,16.70
2009,07,30,07,34,16.80
2009,07,30,07,35,16.90
2009,07,30,07,36,16.90
2009,07,30,07,37,17.00
2009,07,30,07,38,17.00
2009,07,30,07,39,17.10
2009,07,30,07,40,17.20
2009,07,30,07,41,17.20
2009,07,30,07,42,17.20
2009,07,30,07,43,17.30
2009,07,30,07,44,17.30
2009,07,30,07,45,17.30
2009,07,30,07,46,17.40
2009,07,30,07,47,17.40
2009,07,30,07,48,17.40
2009,07,30,07,49,17.40
2009,07,30,07,50,17.30
2009,07,30,07,51,17.30
2009,07,30,07,52,17.30
2009,07,30,07,53,17.30
2009,07,30,07,54,17.30
2009,07,30,07,55,17.30
2009,07,30,07,56,17.10
2009,07,30,07,57,17.00
2009,07,30,07,58,16.90
2009,07,30,07,59,16.90
2009,07,30,08,00,16.80
2009,07,30,08,01,16.80
2009,07,30,08,02,16.80
2009,07,30,08,03,16.90
2009,07,30,08,04,17.00
2009,07,30,08,05,17.00
2009,07,30,08,06,17.20
2009,07,30,08,07,17.30
2009,07,30,08,08,17.30
2009,07,30,08,09,17.40
2009,07,30,08,10,17.50
2009,07,30,08,11,17.60
2009,07,30,08,12,17.60
2009,07,30,08,13,17.60
2009,07,30,08,14,17.60
2009,07,30,08,15,17.60
2009,07,30,08,16,17.50
2009,07,30,08,17,17.50
2009,07,30,08,18,17.40
2009,07,30,08,19,17.40
2009,07,30,08,20,17.50
2009,07,30,08,21,17.50
2009,07,30,08,22,17.60
2009,07,30,08,23,17.60
2009,07,30,08,24,17.70
2009,07,30,08,25,17.70
2009,07,30,08,26,17.80
2009,07,30,08,27,17.90
2009,07,30,08,28,18.10
2009,07,30,08,29,18.30
2009,07,30,08,30,18.50
2009,07,30,08,31,18.70
2009,07,30,08,32,18.90
2009,07,30,08,33,19.00
2009,07,30,08,34,19.10
2009,07,30,08,35,19.10
2009,07,30,08,36,19.00
2009,07,30,08,37,18.80
2009,07,30,08,38,18.60
2009,07,30,08,39,18.50
2009,07,30,08,40,18.30
2009,07,30,08,41,18.20
2009,07,30,08,42,18.10
2009,07,30,08,43,17.90
2009,07,30,08,44,17.80
2009,07,30,08,45,17.70
2009,07,30,08,46,17.80
2009,07,30,08,47,17.80
2009,07,30,08,48,17.90
2009,07,30,08,49,18.10
2009,07,30,08,50,18.20
2009,07,30,08,51,18.20
2009,07,30,08,52,18.20
2009,07,30,08,53,18.20
2009,07,30,08,54,18.00
2009,07,30,08,55,17.80
2009,07,30,08,56,17.70
2009,07,30,08,57,17.60
2009,07,30,08,58,17.50
2009,07,30,08,59,17.40
2009,07,30,09,00,17.40
2009,07,30,09,01,17.50
2009,07,30,09,02,17.60
2009,07,30,09,03,17.70
2009,07,30,09,04,17.60
2009,07,30,09,05,17.60
2009,07,30,09,06,17.60
2009,07,30,09,07,17.70
2009,07,30,09,08,17.70
2009,07,30,09,09,17.70
2009,07,30,09,10,17.70
2009,07,30,09,11,17.70
2009,07,30,09,12,17.80
2009,07,30,09,13,17.80
2009,07,30,09,14,17.80
2009,07,30,09,15,17.80
2009,07,30,09,16,17.80
2009,07,30,09,17,17.70
2009,07,30,09,18,17.50
2009,07,30,09,19,17.40
2009,07,30,09,20,17.30
2009,07,30,09,21,17.30
2009,07,30,09,22,17.30
2009,07,30,09,23,17.40
2009,07,30,09,24,17.30
2009,07,30,09,25,17.30
2009,07,30,09,26,17.40
2009,07,30,09,27,17.40
2009,07,30,09,28,17.50
2009,07,30,09,29,17.60
2009,07,30,09,30,17.70
2009,07,30,09,31,17.70
2009,07,30,09,32,17.70
2009,07,30,09,33,17.70
2009,07,30,09,34,17.70
2009,07,30,09,35,17.80
2009,07,30,09,36,17.90
2009,07,30,09,37,18.00
2009,07,30,09,38,18.20
2009,07,30,09,39,18.50
2009,07,30,09,40,18.60
2009,07,30,09,41,18.70
2009,07,30,09,42,18.70
2009,07,30,09,43,18.80
2009,07,30,09,44,18.70
2009,07,30,09,45,18.70
2009,07,30,09,46,18.60
2009,07,30,09,47,18.60
2009,07,30,09,48,18.50
2009,07,30,09,49,18.50
2009,07,30,09,50,18.70
2009,07,30,09,51,18.90
2009,07,30,09,52,19.00
2009,07,30,09,53,19.10
2009,07,30,09,54,19.10
2009,07,30,09,55,19.10
2009,07,30,09,56,19.00
2009,07,30,09,57,18.90
2009,07,30,09,58,18.80
2009,07,30,09,59,18.70
2009,07,30,10,00,18.60
2009,07,30,10,01,18.50
2009,07,30,10,02,18.40
2009,07,30,10,03,18.20
2009,07,30,10,04,18.20
2009,07,30,10,05,18.20
2009,07,30,10,06,18.20
2009,07,30,10,07,18.10
2009,07,30,10,08,18.00
2009,07,30,10,09,18.00
2009,07,30,10,10,18.10
2009,07,30,10,11,18.10
2009,07,30,10,12,18.00
2009,07,30,10,13,17.90
2009,07,30,10,14,17.80
2009,07,30,10,15,17.60
2009,07,30,10,16,17.50
2009,07,30,10,17,17.50
2009,07,30,10,18,17.50
2009,07,30,10,19,17.50
2009,07,30,10,20,17.60
2009,07,30,10,21,17.70
2009,07,30,10,22,17.70
2009,07,30,10,23,17.80
2009,07,30,10,24,17.90
2009,07,30,10,25,18.10
2009,07,30,10,26,18.10
2009,07,30,10,27,18.30
2009,07,30,10,28,18.30
2009,07,30,10,29,18.40
2009,07,30,10,30,18.40
2009,07,30,10,31,18.50
2009,07,30,10,32,18.60
2009,07,30,10,33,18.60
2009,07,30,10,34,18.70
2009,07,30,10,35,18.80
2009,07,30,10,36,18.90
2009,07,30,10,37,18.90
2009,07,30,10,38,18.90
2009,07,30,10,39,18.90
2009,07,30,10,40,19.10
2009,07,30,10,41,19.10
2009,07,30,10,42,19.20
2009,07,30,10,43,19.20
2009,07,30,10,44,19.30
2009,07,30,10,45,19.30
2009,07,30,10,46,19.30
2009,07,30,10,47,19.30
2009,07,30,10,48,19.30
2009,07,30,10,49,19.30
2009,07,30,10,50,19.30
2009,07,30,10,51,19.30
2009,07,30,10,52,19.30
2009,07,30,10,53,19.30
2009,07,30,10,54,19.30
2009,07,30,10,55,19.40
2009,07,30,10,56,19.50
2009,07,30,10,57,19.50
2009,07,30,10,58,19.60
2009,07,30,10,59,19.80
2009,07,30,11,00,19.90
2009,07,30,11,01,20.00
2009,07,30,11,02,20.10
2009,07,30,11,03,20.40
2009,07,30,11,04,20.50
2009,07,30,11,05,20.70
2009,07,30,11,06,20.90
2009,07,30,11,07,21.10
2009,07,30,11,08,21.20
2009,07,30,11,09,21.30
2009,07,30,11,10,21.40
2009,07,30,11,11,21.40
2009,07,30,11,12,21.30
2009,07,30,11,13,21.30
2009,07,30,11,14,21.40
2009,07,30,11,15,21.50
2009,07,30,11,16,21.60
2009,07,30,11,17,21.80
2009,07,30,11,18,21.90
2009,07,30,11,19,22.00
2009,07,30,11,20,22.10
2009,07,30,11,21,22.30
2009,07,30,11,22,22.40
2009,07,30,11,23,22.50
2009,07,30,11,24,22.80
2009,07,30,11,25,23.00
2009,07,30,11,26,23.10
2009,07,30,11,27,23.00
2009,07,30,11,28,22.80
2009,07,30,11,29,22.70
2009,07,30,11,30,22.60
2009,07,30,11,31,22.40
2009,07,30,11,32,22.30
2009,07,30,11,33,22.10
2009,07,30,11,34,22.00
2009,07,30,11,35,22.00
2009,07,30,11,36,22.00
2009,07,30,11,37,22.00
2009,07,30,11,38,22.10
2009,07,30,11,39,22.10
2009,07,30,11,40,22.20
2009,07,30,11,41,22.30
2009,07,30,11,42,22.50
2009,07,30,11,43,22.70
2009,07,30,11,44,22.80
2009,07,30,11,45,22.80
2009,07,30,11,46,22.90
2009,07,30,11,47,23.00
2009,07,30,11,48,23.10
2009,07,30,11,49,23.10
2009,07,30,11,50,23.30
2009,07,30,11,51,23.30
2009,07,30,11,52,23.30
2009,07,30,11,53,23.40
2009,07,30,11,54,23.50
2009,07,30,11,55,23.70
2009,07,30,11,56,23.90
2009,07,30,11,57,24.10
2009,07,30,11,58,24.10
2009,07,30,11,59,24.30
2009,07,30,12,00,24.50
2009,07,30,12,01,24.70
2009,07,30,12,02,24.90
2009,07,30,12,03,25.00
2009,07,30,12,04,25.20
2009,07,30,12,05,25.40
2009,07,30,12,06,25.60
2009,07,30,12,07,25.80
2009,07,30,12,08,25.90
2009,07,30,12,09,26.00
2009,07,30,12,10,26.10
2009,07,30,12,11,26.20
2009,07,30,12,12,26.30
2009,07,30,12,13,26.50
2009,07,30,12,14,26.60
2009,07,30,12,15,26.60
2009,07,30,12,16,26.60
2009,07,30,12,17,26.60
2009,07,30,12,18,26.60
2009,07,30,12,19,26.80
2009,07,30,12,20,26.90
2009,07,30,12,21,27.10
2009,07,30,12,22,27.20
2009,07,30,12,23,27.40
2009,07,30,12,24,27.50
2009,07,30,12,25,27.70
2009,07,30,12,26,27.60
2009,07,30,12,27,27.50
2009,07,30,12,28,27.40
2009,07,30,12,29,27.50
2009,07,30,12,30,27.60
2009,07,30,12,31,27.70
2009,07,30,12,32,27.90
2009,07,30,12,33,27.90
2009,07,30,12,34,27.80
2009,07,30,12,35,27.80
2009,07,30,12,36,27.90
2009,07,30,12,37,27.90
2009,07,30,12,38,27.80
2009,07,30,12,39,27.70
2009,07,30,12,40,27.60
2009,07,30,12,41,27.70
2009,07,30,12,42,27.70
2009,07,30,12,43,27.70
2009,07,30,12,44,27.60
2009,07,30,12,45,27.60
2009,07,30,12,46,27.60
2009,07,30,12,47,27.60
2009,07,30,12,48,27.70
2009,07,30,12,49,27.80
2009,07,30,12,50,27.90
2009,07,30,12,51,28.00
2009,07,30,12,52,28.00
2009,07,30,12,53,27.90
2009,07,30,12,54,27.90
2009,07,30,12,55,27.80
2009,07,30,12,56,27.90
2009,07,30,12,57,27.90
2009,07,30,12,58,27.90
2009,07,30,12,59,28.00
2009,07,30,13,00,28.10
2009,07,30,13,01,28.20
2009,07,30,13,02,28.10
2009,07,30,13,03,28.10
2009,07,30,13,04,28.10
2009,07,30,13,05,28.30
2009,07,30,13,06,28.50
2009,07,30,13,07,28.60
2009,07,30,13,08,28.80
2009,07,30,13,09,29.00
2009,07,30,13,10,29.20
2009,07,30,13,11,29.30
2009,07,30,13,12,29.50
2009,07,30,13,13,29.70
2009,07,30,13,14,29.90
2009,07,30,13,15,29.90
2009,07,30,13,16,30.00
2009,07,30,13,17,29.90
2009,07,30,13,18,29.70
2009,07,30,13,19,29.70
2009,07,30,13,20,29.80
2009,07,30,13,21,29.90
2009,07,30,13,22,30.00
2009,07,30,13,23,30.10
2009,07,30,13,24,30.10
2009,07,30,13,25,30.10
2009,07,30,13,26,30.10
2009,07,30,13,27,30.00
2009,07,30,13,28,29.90
2009,07,30,13,29,29.90
2009,07,30,13,30,29.90
2009,07,30,13,31,29.90
2009,07,30,13,32,29.80
2009,07,30,13,33,29.60
2009,07,30,13,34,29.30
2009,07,30,13,35,28.90
2009,07,30,13,36,28.50
2009,07,30,13,37,28.00
2009,07,30,13,38,27.70
2009,07,30,13,39,27.40
2009,07,30,13,40,27.20
2009,07,30,13,41,26.90
2009,07,30,13,42,26.80
2009,07,30,13,43,26.80
2009,07,30,13,44,26.80
2009,07,30,13,45,26.80
2009,07,30,13,46,26.80
2009,07,30,13,47,26.70
2009,07,30,13,48,26.80
2009,07,30,13,49,26.90
2009,07,30,13,50,26.80
2009,07,30,13,51,26.80
2009,07,30,13,52,26.80
2009,07,30,13,53,26.80
2009,07,30,13,54,27.00
2009,07,30,13,55,27.10
2009,07,30,13,56,27.20
2009,07,30,13,57,27.30
2009,07,30,13,58,27.30
2009,07,30,13,59,27.40
2009,07,30,14,00,27.60
2009,07,30,14,01,27.60
2009,07,30,14,02,27.70
2009,07,30,14,03,27.80
2009,07,30,14,04,28.00
2009,07,30,14,05,28.30
2009,07,30,14,06,28.70
2009,07,30,14,07,29.00
2009,07,30,14,08,29.30
2009,07,30,14,09,29.70
2009,07,30,14,10,29.80
2009,07,30,14,11,30.00
2009,07,30,14,12,30.20
2009,07,30,14,13,30.50
2009,07,30,14,14,30.80
2009,07,30,14,15,31.00
2009,07,30,14,16,31.20
2009,07,30,14,17,31.20
2009,07,30,14,18,31.30
2009,07,30,14,19,31.30
2009,07,30,14,20,31.40
2009,07,30,14,21,31.40
2009,07,30,14,22,31.50
2009,07,30,14,23,31.60
2009,07,30,14,24,31.70
2009,07,30,14,25,31.80
2009,07,30,14,26,31.80
2009,07,30,14,27,31.60
2009,07,30,14,28,31.50
2009,07,30,14,29,31.40
2009,07,30,14,30,31.40
2009,07,30,14,31,31.50
2009,07,30,14,32,31.60
2009,07,30,14,33,31.80
2009,07,30,14,34,31.90
2009,07,30,14,35,32.10
2009,07,30,14,36,32.20
2009,07,30,14,37,32.20
2009,07,30,14,38,32.20
2009,07,30,14,39,32.20
2009,07,30,14,40,32.20
2009,07,30,14,41,32.30
2009,07,30,14,42,32.40
2009,07,30,14,43,32.50
2009,07,30,14,44,32.50
2009,07,30,14,45,32.60
2009,07,30,14,46,32.60
2009,07,30,14,47,32.60
2009,07,30,14,48,32.60
2009,07,30,14,49,32.50
2009,07,30,14,50,32.50
2009,07,30,14,51,32.40
2009,07,30,14,52,32.50
2009,07,30,14,53,32.60
2009,07,30,14,54,32.80
2009,07,30,14,55,32.60
2009,07,30,14,56,32.60
2009,07,30,14,57,32.60
2009,07,30,14,58,32.50
2009,07,30,14,59,32.50
2009,07,30,15,00,32.20
2009,07,30,15,01,32.10
2009,07,30,15,02,32.00
2009,07,30,15,03,31.90
2009,07,30,15,04,31.90
2009,07,30,15,05,32.00
2009,07,30,15,06,32.10
2009,07,30,15,07,32.10
2009,07,30,15,08,32.00
2009,07,30,15,09,31.90
2009,07,30,15,10,32.00
2009,07,30,15,11,32.10
2009,07,30,15,12,32.20
2009,07,30,15,13,32.40
2009,07,30,15,14,32.50
2009,07,30,15,15,32.60
2009,07,30,15,16,32.80
2009,07,30,15,17,32.70
2009,07,30,15,18,32.60
2009,07,30,15,19,32.50
2009,07,30,15,20,32.60
2009,07,30,15,21,32.70
2009,07,30,15,22,32.80
2009,07,30,15,23,32.80
2009,07,30,15,24,32.70
2009,07,30,15,25,32.60
2009,07,30,15,26,32.50
2009,07,30,15,27,32.40
2009,07,30,15,28,32.40
2009,07,30,15,29,32.30
2009,07,30,15,30,32.30
2009,07,30,15,31,32.40
2009,07,30,15,32,32.40
2009,07,30,15,33,32.40
2009,07,30,15,34,32.40
2009,07,30,15,35,32.30
2009,07,30,15,36,32.30
2009,07,30,15,37,32.40
2009,07,30,15,38,32.50
2009,07,30,15,39,32.50
2009,07,30,15,40,32.50
2009,07,30,15,41,32.50
2009,07,30,15,42,32.50
2009,07,30,15,43,32.40
2009,07,30,15,44,32.30
2009,07,30,15,45,32.30
2009,07,30,15,46,32.30
2009,07,30,15,47,32.20
2009,07,30,15,48,32.10
2009,07,30,15,49,32.10
2009,07,30,15,50,32.10
2009,07,30,15,51,31.90
2009,07,30,15,52,31.60
2009,07,30,15,53,31.40
2009,07,30,15,54,31.20
2009,07,30,15,55,31.20
2009,07,30,15,56,31.20
2009,07,30,15,57,31.20
2009,07,30,15,58,31.10
2009,07,30,15,59,31.00
2009,07,30,16,00,31.00
2009,07,30,16,01,31.00
2009,07,30,16,02,31.00
2009,07,30,16,03,31.00
2009,07,30,16,04,31.00
2009,07,30,16,05,31.00
2009,07,30,16,06,30.90
2009,07,30,16,07,30.90
2009,07,30,16,08,30.90
2009,07,30,16,09,30.90
2009,07,30,16,10,30.90
2009,07,30,16,11,30.90
2009,07,30,16,12,31.00
2009,07,30,16,13,31.10
2009,07,30,16,14,31.20
2009,07,30,16,15,31.40
2009,07,30,16,16,31.50
2009,07,30,16,17,31.60
2009,07,30,16,18,31.70
2009,07,30,16,19,31.70
2009,07,30,16,20,31.70
2009,07,30,16,21,31.50
2009,07,30,16,22,31.40
2009,07,30,16,23,31.30
2009,07,30,16,24,31.20
2009,07,30,16,25,31.10
2009,07,30,16,26,31.00
2009,07,30,16,27,31.00
2009,07,30,16,28,31.00
2009,07,30,16,29,31.00
2009,07,30,16,30,30.90
2009,07,30,16,31,30.90
2009,07,30,16,32,30.80
2009,07,30,16,33,30.80
2009,07,30,16,34,30.80
2009,07,30,16,35,30.80
2009,07,30,16,36,30.80
2009,07,30,16,37,30.80
2009,07,30,16,38,30.80
2009,07,30,16,39,30.90
2009,07,30,16,40,30.90
2009,07,30,16,41,31.00
2009,07,30,16,42,31.00
2009,07,30,16,43,31.00
2009,07,30,16,44,31.00
2009,07,30,16,45,31.00
2009,07,30,16,46,31.00
2009,07,30,16,47,31.00
2009,07,30,16,48,31.00
2009,07,30,16,49,30.90
2009,07,30,16,50,30.80
2009,07,30,16,51,30.70
2009,07,30,16,52,30.70
2009,07,30,16,53,30.60
2009,07,30,16,54,30.60
2009,07,30,16,55,30.60
2009,07,30,16,56,30.70
2009,07,30,16,57,30.80
2009,07,30,16,58,30.80
2009,07,30,16,59,30.80
2009,07,30,17,00,30.90
2009,07,30,17,01,31.00
2009,07,30,17,02,30.90
2009,07,30,17,03,30.90
2009,07,30,17,04,30.80
2009,07,30,17,05,30.70
2009,07,30,17,06,30.60
2009,07,30,17,07,30.60
2009,07,30,17,08,30.60
2009,07,30,17,09,30.60
2009,07,30,17,10,30.50
2009,07,30,17,11,30.40
2009,07,30,17,12,30.30
2009,07,30,17,13,30.30
2009,07,30,17,14,30.30
2009,07,30,17,15,30.30
2009,07,30,17,16,30.30
2009,07,30,17,17,30.30
2009,07,30,17,18,30.40
2009,07,30,17,19,30.40